[Iaude] MPEC L136: 2016 LJ10 [a=1.37,e=0.35,i=11.8,H=23.70]

mpec at cfa.harvard.edu mpec at cfa.harvard.edu
Fri Jun 14 10:12:58 EDT 2024


M.P.E.C. 2024-L136                                Issued 2024 June 14, 14:11 UT

     The Minor Planet Electronic Circulars contain information on unusual
         minor planets, routine data on comets and natural satellites,
         and occasional editorial announcements.  They are published
    on behalf of Division F of the International Astronomical Union by the
          Minor Planet Center, Smithsonian Astrophysical Observatory,
                          Cambridge, MA 02138, U.S.A.
			  
             Prepared using the Tamkin Foundation Computer Network

                              MPC at CFA.HARVARD.EDU
            URL https://www.minorplanetcenter.net/    ISSN 1523-6714

                                   2016 LJ10                                    


                           Revision to MPEC 2016-L83                            

Additional Observations:
     K16L10J 1C2024 06 07.17435512 07 29.669-08 09 01.73         19.97GVEL136G96
     K16L10J 1C2024 06 07.17959612 07 36.700-08 08 41.64               VEL136G96
     K16L10J 1C2024 06 07.19005012 07 50.552-08 08 02.58         20.09GVEL136G96
     K16L10J KC2024 06 07.22105012 08 32.377-08 06 02.63         19.99GVEL136I52
     K16L10J KC2024 06 07.22241912 08 34.242-08 05 57.26         19.64GVEL136I52
     K16L10J KC2024 06 07.22378812 08 36.046-08 05 52.15         20.02GVEL136I52
     K16L10J KC2024 06 07.22517012 08 37.943-08 05 46.54         20.02GVEL136I52
     K16L10J KC2024 06 07.25525012 09 18.461-08 03 51.80         20.41GVEL136I52
     K16L10J KC2024 06 07.25591112 09 19.422-08 03 48.89         19.90GVEL136I52
     K16L10J KC2024 06 07.25721512 09 21.107-08 03 43.63         19.75GVEL136I52
     K16L10J KC2024 06 13.84993 14 14 12.80 -01 36 10.6                VEL136M21
     K16L10J KC2024 06 13.88294 14 14 39.68 -01 34 40.8          19.6 GVEL136M21

Observer details:
G96 Mt. Lemmon Survey.  Observer J. K. Hogan.  Measurers T. Beuden, V. F.
    Carvajal, D. Fay, J. B. Fazekas, D. C. Fuls, A. R. Gibbs, A. D. Grauer, H.
    Groeller, J. K. Hogan, R. A. Kowalski, S. M. Larson, G. J. Leonard, D.
    Rankin, R. L. Seaman, F. C. Shelly, K. W. Wierzchos.  1.5-m reflector +
    10K CCD.
I52 Steward Observatory, Mt. Lemmon Station.  Observer R. A. Kowalski.
    Measurers T. Beuden, V. F. Carvajal, D. Fay, J. B. Fazekas, D. C. Fuls, A.
    R. Gibbs, A. D. Grauer, H. Groeller, J. K. Hogan, R. A. Kowalski, S. M.
    Larson, G. J. Leonard, D. Rankin, R. L. Seaman, F. C. Shelly, K. W.
    Wierzchos.  1.0-m prime focus + CCD.
M21 Schiaparelli Southern Observatory, Hakos.  Observers A. Aletti, F.
    Bellini, L. Buzzi, G. Galli.  Measurers L. Buzzi, G. Galli.  0.36-m f/8.4
    reflector + CCD.

First and last observations above in comparison with prediction:
Residuals in seconds of arc (or two decimals in degrees), reference and Delta-T
240607 G96 2.05+ 0.51+    240613 M21 2.44+ 0.01+    MPO782272   +0.21 days

Orbital elements:
2016 LJ10                                                Earth MOID = 0.0207 AU
Epoch 2024 Mar. 31.0 TT = JDT 2460400.5                 Veres                   
M 349.39791              (2000.0)            P               Q                  
n   0.61368370     Peri.  296.03604     -0.96276970     +0.18515703             
a   1.3714279      Node   255.15365     -0.10965095     -0.93345190             
e   0.3459131      Incl.   11.75677     -0.24708537     -0.30722048             
P   1.61           H   23.70          G   0.15           U   1                  
Residuals in seconds of arc
160607 F51  0.2+  0.3-    160612 H21  0.4+  0.7+    160627 705  0.5+  0.6-
160607 F51  0.0   0.0     160613 H21  0.6+  0.4+    240607 G96  0.3-  0.4-
160607 F51  0.1-  0.0     160613 H21  0.4+  0.5+    240607 G96  0.2-  0.3-
160608 568  0.1-  0.1+    160613 H21  0.5+  0.3+    240607 G96 (2.6-  1.1-)
160608 568  0.1-  0.0     160615 H21  0.6-  0.1+    240607 I52  0.2+  0.3+
160608 568  0.0   0.0     160615 H21  0.4-  0.1+    240607 I52  0.6+  0.4+
160609 291  0.2+  0.0     160615 H21  0.9-  0.4+    240607 I52  0.0   0.2+
160609 291  0.5-  0.7-    160616 H21  0.0   0.1-    240607 I52  0.5+  0.5+
160609 291  0.1+  0.1+    160616 H21  0.5-  0.1-    240607 I52  0.1-  0.5-
160611 H21  0.3-  0.4+    160616 H21  0.2-  0.1-    240607 I52  0.9+  0.1-
160611 H21  0.0   0.1+    160616 695  0.0   0.1-    240607 I52  0.3-  0.1+
160611 H21  0.0   0.5+    160616 695  0.1+  0.1-    240613 M21  0.0   0.5+
160611 H21  0.3+  0.3+    160616 695  0.1+  0.1-    240613 M21  0.2+  0.2-
160612 H21  0.1+  0.8+    160627 705  0.6+  0.0
160612 H21  0.1+  0.3+    160627 705  0.1+  0.1-

Ephemeris:
2016 LJ10                a,e,i = 1.37, 0.35, 12                  q = 0.8970
Date    TT    R. A. (2000) Decl.     Delta      r    Elong.  Phase     V
2024 05 15    07 02 05.7 -11 40 05   0.1605  0.9435    61.0   110.5    23.8
...
2024 05 30    09 14 48.7 -13 06 51   0.08131 1.0006    78.4    97.0    21.7
...
2024 06 07    12 03 30.5 -08 18 34   0.06710 1.0371   107.6    68.9    20.3
...
2024 06 13    14 01 38.2 -02 17 27   0.08236 1.0665   126.4    50.1    20.3
2024 06 14    14 16 20.4 -01 30 03   0.08659 1.0715   128.3    48.0    20.3
2024 06 15    14 29 41.2 -00 47 30   0.09116 1.0766   129.9    46.3    20.4
...
2024 06 21    15 27 37.2 +02 01 15   0.1238  1.1075   135.2    40.3    21.0
...
2024 06 29    16 10 24.7 +03 23 01   0.1753  1.1499   136.4    37.6    21.7
...
2024 07 14    16 52 23.0 +02 58 10   0.2862  1.2310   133.5    36.8    22.9

A. U. Tomatic                (C) Copyright 2024 MPC           M.P.E.C. 2024-L136





More information about the Iaude mailing list